W8APS Weather Reports


time (UTC)temp
F
wind
direction
speed
knots
gust
knots
rain 1hr
in
rain 24hr
in
rain mn
in
humidity
%
barometer
mb
20260506134012 43 313 3.5 8.7 0.00 0.00 0.00 63 1011.9
20260506133513 43 347 4.3 8.7 0.00 0.00 0.00 64 1011.9
20260506133042 42 13 3.5 7.8 0.00 0.00 0.00 64 1011.8
20260506132515 42 14 3.5 7.8 0.00 0.00 0.00 64 1011.6
20260506132015 42 349 3.5 7.8 0.00 0.00 0.00 65 1011.6
20260506131535 42 23 2.6 7.8 0.00 0.00 0.00 65 1011.7
20260506131015 42 43 3.5 7.8 0.00 0.00 0.00 65 1011.7
20260506130515 42 343 2.6 9.6 0.00 0.00 0.00 67 1011.6
20260506130030 41 41 3.5 9.6 0.00 0.00 0.00 67 1011.4
20260506125514 41 18 5.2 9.6 0.00 0.00 0.00 66 1011.3
20260506125014 41 348 3.5 7.8 0.00 0.00 0.00 69 1011.3
20260506124532 41 328 4.3 7.8 0.00 0.00 0.00 69 1011.2
20260506124012 41 13 3.5 8.7 0.00 0.00 0.00 70 1011.2
20260506123513 41 35 4.3 10.4 0.00 0.00 0.00 70 1011.2
20260506123032 41 14 5.2 10.4 0.00 0.00 0.00 70 1011.2
20260506122513 41 342 2.6 10.4 0.00 0.00 0.00 72 1011.3
20260506122014 41 345 2.6 8.7 0.00 0.00 0.00 73 1011.1
20260506121531 41 29 5.2 8.7 0.00 0.00 0.00 72 1011.0
20260506121017 41 348 3.5 8.7 0.00 0.00 0.00 72 1010.8
20260506120514 41 328 3.5 7.0 0.00 0.00 0.00 73 1010.9
20260506120037 41 4 1.7 7.8 0.00 0.00 0.00 74 1010.9
20260506115519 41 30 3.5 8.7 0.00 0.00 0.00 74 1010.6
20260506115013 41 5 3.5 8.7 0.00 0.00 0.00 74 1010.6
20260506114531 41 346 4.3 7.0 0.00 0.00 0.00 73 1010.3
20260506114018 41 343 1.7 5.2 0.00 0.00 0.00 73 1010.3
20260506113512 41 22 1.7 5.2 0.00 0.00 0.00 73 1010.3
20260506113030 41 344 1.7 3.5 0.00 0.00 0.00 72 1010.3
20260506112512 41 0 0.0 2.6 0.00 0.00 0.00 73 1010.2
20260506112013 41 355 0.0 1.7 0.00 0.00 0.00 73 1010.1
20260506111529 41 335 0.0 0.9 0.00 0.00 0.00 72 1010.0
20260506111014 41 329 0.0 2.6 0.00 0.00 0.00 72 1009.8
20260506110518 41 339 0.0 2.6 0.00 0.00 0.00 72 1009.7
20260506110033 41 3 0.0 0.9 0.00 0.00 0.00 71 1009.7
20260506105515 41 315 0.0 0.9 0.00 0.00 0.00 71 1009.7
20260506105014 41 0 0.0 0.9 0.00 0.00 0.00 70 1009.5
20260506104537 41 4 0.0 0.9 0.00 0.00 0.00 70 1009.4
20260506104015 41 340 0.0 1.7 0.00 0.00 0.00 69 1009.4
20260506103515 42 0 0.0 1.7 0.00 0.00 0.00 69 1009.5
20260506103035 42 0 0.0 0.9 0.00 0.00 0.00 69 1009.4
20260506102513 42 339 0.0 4.3 0.00 0.00 0.00 69 1009.4
20260506102016 42 0 0.9 4.3 0.00 0.00 0.00 68 1009.4
20260506101544 42 13 1.7 5.2 0.00 0.00 0.00 67 1009.4
20260506101019 42 341 2.6 7.0 0.00 0.00 0.00 67 1009.3
20260506100515 42 4 0.0 7.0 0.00 0.00 0.00 68 1009.0
20260506100033 42 326 2.6 7.0 0.00 0.00 0.00 68 1008.9
20260506095514 43 34 1.7 5.2 0.00 0.00 0.00 69 1008.8
20260506095014 43 1 0.9 5.2 0.00 0.00 0.00 72 1008.7
20260506094529 43 323 0.9 5.2 0.00 0.00 0.00 73 1008.7
20260506094014 43 20 1.7 5.2 0.00 0.00 0.00 74 1008.8
20260506093515 43 333 1.7 4.3 0.00 0.00 0.00 76 1008.8
20260506093032 43 8 0.9 4.3 0.00 0.00 0.00 77 1008.7
20260506092514 44 23 1.7 4.3 0.00 0.00 0.00 77 1008.7
20260506092012 44 7 0.9 4.3 0.00 0.00 0.00 77 1008.8
20260506091532 44 21 0.9 2.6 0.00 0.00 0.00 77 1008.7
20260506091014 44 340 0.9 3.5 0.00 0.00 0.00 77 1008.7
20260506090514 44 333 1.7 5.2 0.00 0.00 0.00 77 1008.6
20260506090029 44 29 2.6 5.2 0.00 0.00 0.00 76 1008.4
20260506085515 44 333 1.7 4.3 0.00 0.00 0.00 76 1008.4
20260506085014 44 315 0.9 4.3 0.00 0.00 0.00 75 1008.4
20260506084538 45 39 0.9 5.2 0.00 0.00 0.00 75 1008.6
20260506084015 45 24 0.9 5.2 0.00 0.00 0.00 74 1008.5
20260506083517 45 356 2.6 4.3 0.00 0.00 0.00 74 1008.6
20260506083033 45 14 0.9 3.5 0.00 0.00 0.00 73 1008.6
20260506082512 45 320 0.9 3.5 0.00 0.00 0.00 73 1008.6
20260506082016 45 331 0.9 2.6 0.00 0.00 0.00 72 1008.6
20260506081530 45 338 0.9 2.6 0.00 0.00 0.00 71 1008.7
20260506081017 45 30 0.9 3.5 0.00 0.00 0.00 71 1008.6
20260506080513 45 338 0.9 4.3 0.00 0.00 0.00 70 1008.6
20260506073512 46 308 0.9 4.3 0.00 0.00 0.00 66 1008.5
20260506073029 46 319 1.7 4.3 0.00 0.00 0.00 66 1008.4
20260506072514 46 328 0.9 4.3 0.00 0.00 0.00 65 1008.3
20260506072019 46 330 0.9 4.3 0.00 0.00 0.00 64 1008.5
20260506071528 46 0 0.0 3.5 0.00 0.00 0.00 64 1008.5
20260506071014 47 323 0.0 3.5 0.00 0.00 0.00 63 1008.6
20260506070514 47 297 0.0 3.5 0.00 0.00 0.00 63 1008.4
20260506062514 47 0 0.0 4.3 0.00 0.00 0.00 59 1008.5
20260506062011 47 314 0.9 4.3 0.00 0.00 0.00 58 1008.6
20260506061531 47 0 0.9 4.3 0.00 0.00 0.00 58 1008.6
20260506061016 47 0 0.9 5.2 0.00 0.00 0.00 58 1008.6
20260506060514 47 266 1.7 5.2 0.00 0.00 0.00 56 1008.5
20260506051012 48 244 0.9 7.0 0.00 0.00 0.00 53 1008.5
20260506050518 48 293 0.9 7.0 0.00 0.00 0.00 53 1008.5
20260506045017 48 315 0.9 4.3 0.00 0.00 0.00 53 1008.6
20260506044530 48 283 1.7 4.3 0.00 0.00 0.00 53 1008.1
20260506044014 48 302 0.9 4.3 0.00 0.00 0.00 53 1008.1
20260506043514 49 296 0.0 4.3 0.00 0.00 0.00 53 1008.2
20260506043030 49 328 0.9 4.3 0.00 0.00 0.00 53 1008.0
20260506042515 49 286 0.9 5.2 0.00 0.00 0.00 53 1008.1
20260506042014 49 304 0.9 5.2 0.00 0.00 0.00 52 1008.1
20260506041533 49 296 1.7 4.3 0.00 0.00 0.00 52 1008.1
20260506041014 49 264 0.9 4.3 0.00 0.00 0.00 53 1008.1
20260506040514 49 0 0.9 4.3 0.00 0.00 0.00 52 1008.2
20260506040037 49 296 0.0 5.2 0.00 0.00 0.00 52 1008.1
20260506035514 49 262 1.7 5.2 0.00 0.00 0.00 52 1008.3
20260506035014 49 0 0.9 5.2 0.00 0.00 0.00 52 1008.3
20260506034530 49 257 0.9 5.2 0.00 0.00 0.00 52 1008.3
20260506034014 49 290 0.9 5.2 0.00 0.00 0.00 52 1008.2
20260506033512 49 297 0.9 3.5 0.00 0.00 0.00 51 1008.2
20260506033034 49 226 0.9 4.3 0.00 0.00 0.00 51 1008.3
20260506032516 49 265 1.7 6.1 0.00 0.00 0.00 51 1008.2
20260506032013 49 267 0.9 6.1 0.00 0.00 0.00 51 1008.4
20260506031530 49 238 0.0 3.5 0.00 0.00 0.00 51 1008.2
20260506031016 49 255 0.9 3.5 0.00 0.00 0.00 50 1008.3
20260506030513 49 255 0.0 3.5 0.00 0.00 0.00 50 1008.1
20260506030029 50 251 1.7 3.5 0.00 0.00 0.00 50 1008.1
20260506025515 50 0 0.0 2.6 0.00 0.00 0.00 49 1008.2
20260506025013 50 231 0.0 5.2 0.00 0.00 0.00 49 1008.3
20260506024531 50 0 1.7 5.2 0.00 0.00 0.00 49 1008.5
20260506024017 50 244 0.9 3.5 0.00 0.00 0.00 49 1008.5
20260506023515 50 0 0.0 3.5 0.00 0.00 0.00 49 1008.2
20260506023042 50 236 0.9 3.5 0.00 0.00 0.00 48 1008.1
20260506022514 50 0 0.0 3.5 0.00 0.00 0.00 49 1008.2
20260506022016 50 266 0.9 4.3 0.00 0.00 0.00 48 1008.3
20260506021534 50 0 0.9 4.3 0.00 0.00 0.00 48 1008.5
20260506021017 50 270 0.9 3.5 0.00 0.00 0.00 48 1008.5
20260506020515 50 224 0.9 4.3 0.00 0.00 0.00 48 1008.3
20260506020034 50 246 0.9 4.3 0.00 0.00 0.00 47 1008.2
20260506015515 50 240 0.9 3.5 0.00 0.00 0.00 47 1008.1
20260506015019 50 0 1.7 3.5 0.00 0.00 0.00 47 1008.0
20260506014533 51 272 0.9 5.2 0.00 0.00 0.00 47 1008.0
20260506014014 51 274 1.7 5.2 0.00 0.00 0.00 46 1007.9
20260506013515 51 243 0.0 3.5 0.00 0.00 0.00 47 1007.9
20260506013030 51 0 0.9 3.5 0.00 0.00 0.00 48 1007.9
20260506012514 51 263 0.9 5.2 0.00 0.00 0.00 46 1007.9
20260506012012 51 255 1.7 5.2 0.00 0.00 0.00 46 1007.9
20260506011532 51 226 0.9 3.5 0.00 0.00 0.00 46 1007.8
20260506011015 51 221 0.0 2.6 0.00 0.00 0.00 46 1007.9
20260506010515 51 236 0.9 5.2 0.00 0.00 0.00 45 1007.8
20260506010044 51 240 0.9 7.0 0.00 0.00 0.00 45 1007.8
20260506005515 52 255 2.6 7.0 0.00 0.00 0.00 45 1007.9
20260506005014 52 210 2.6 6.1 0.00 0.00 0.00 44 1007.8
20260506004530 52 0 0.9 4.3 0.00 0.00 0.00 45 1007.8
20260506004013 52 261 1.7 5.2 0.00 0.00 0.00 43 1007.8
20260506003513 52 263 0.9 6.1 0.00 0.00 0.00 43 1007.7
20260506003032 52 262 1.7 8.7 0.00 0.00 0.00 43 1007.6
20260506002512 52 247 1.7 8.7 0.00 0.00 0.00 42 1007.6
20260506002013 52 251 3.5 11.3 0.00 0.00 0.00 42 1007.6
20260506001531 52 253 4.3 11.3 0.00 0.00 0.00 42 1007.6
20260506001016 52 262 0.9 7.0 0.00 0.00 0.00 44 1007.5
20260506000515 53 264 1.7 7.0 0.00 0.00 0.00 43 1007.4
20260506000029 53 262 2.6 7.8 0.00 0.00 0.00 43 1007.4
20260505235515 53 259 2.6 7.8 0.00 0.00 0.00 43 1007.3
20260505235014 53 242 2.6 6.1 0.00 0.00 0.00 43 1007.2
20260505234554 53 0 0.9 6.1 0.00 0.00 0.00 44 1007.2
20260505234016 53 269 1.7 6.1 0.00 0.00 0.00 44 1007.2
20260505233514 53 271 1.7 6.1 0.00 0.00 0.00 45 1007.1
20260505233037 53 279 0.9 5.2 0.00 0.00 0.00 48 1007.1
20260505232513 53 246 1.7 5.2 0.00 0.00 0.00 48 1007.0
20260505232013 53 255 2.6 6.1 0.00 0.00 0.00 49 1007.0
20260505231533 53 271 0.9 6.1 0.00 0.00 0.00 52 1006.9
20260505231015 54 228 1.7 5.2 0.00 0.00 0.00 56 1007.0
20260505230515 54 229 2.6 5.2 0.00 0.00 0.00 57 1007.0
20260505230029 54 156 1.7 7.8 0.00 0.00 0.00 58 1007.1
20260505225516 54 213 1.7 7.8 0.00 0.00 0.00 56 1007.0
20260505225016 54 232 1.7 7.8 0.00 0.00 0.00 57 1007.1
20260505224533 54 227 2.6 5.2 0.00 0.00 0.00 55 1007.2
20260505224016 54 245 0.9 7.0 0.00 0.00 0.00 57 1007.1
20260505223523 54 265 1.7 7.0 0.00 0.00 0.00 53 1007.1
20260505223028 54 215 3.5 7.0 0.00 0.00 0.00 54 1007.1
20260505222518 54 0 0.9 7.0 0.00 0.00 0.00 54 1007.2
20260505222012 54 240 2.6 7.0 0.00 0.00 0.00 53 1007.2
20260505221530 54 204 3.5 7.0 0.00 0.00 0.00 54 1007.2
20260505221020 54 231 2.6 7.0 0.00 0.00 0.00 55 1007.2
20260505220515 54 202 2.6 10.4 0.00 0.00 0.00 54 1007.2
20260505220032 54 236 2.6 10.4 0.00 0.00 0.00 54 1007.3
20260505215515 54 253 3.5 7.8 0.00 0.00 0.00 54 1007.2
20260505215014 54 163 2.6 7.0 0.00 0.00 0.00 54 1007.4
20260505214557 54 224 2.6 7.0 0.00 0.00 0.00 53 1007.3
20260505214018 54 271 2.6 7.8 0.00 0.00 0.00 53 1007.2
20260505213514 54 299 1.7 9.6 0.00 0.00 0.00 53 1007.2
20260505213028 54 256 3.5 9.6 0.00 0.00 0.00 54 1007.1
20260505212518 54 240 1.7 8.7 0.00 0.00 0.00 56 1007.1
20260505212015 54 210 2.6 7.8 0.00 0.00 0.00 54 1007.1
20260505211532 54 247 1.7 11.3 0.00 0.00 0.00 56 1007.2
20260505211015 54 241 3.5 11.3 0.00 0.00 0.00 56 1007.3
20260505210514 54 219 3.5 10.4 0.00 0.00 0.00 59 1007.3
20260505210031 54 230 3.5 8.7 0.00 0.00 0.00 63 1007.3
20260505205512 54 223 3.5 7.8 0.00 0.00 0.00 63 1007.2
20260505205015 54 260 2.6 7.8 0.00 0.00 0.00 63 1007.1
20260505204531 54 224 1.7 9.6 0.00 0.00 0.00 63 1007.1
20260505204019 54 217 2.6 9.6 0.00 0.00 0.00 64 1007.0
20260505203516 54 199 1.7 9.6 0.00 0.00 0.00 64 1007.2
20260505203036 54 235 1.7 9.6 0.00 0.00 0.00 62 1007.1
20260505202515 54 233 2.6 9.6 0.00 0.00 0.00 62 1007.2
20260505202013 54 219 2.6 7.8 0.00 0.00 0.00 61 1007.1
20260505201536 54 207 1.7 7.8 0.00 0.00 0.00 61 1007.0
20260505201013 54 213 2.6 7.8 0.00 0.00 0.00 61 1007.0
20260505200516 54 157 2.6 7.0 0.00 0.00 0.00 60 1007.2
20260505200032 54 244 1.7 7.0 0.00 0.00 0.00 60 1007.1
20260505195514 54 276 2.6 8.7 0.00 0.00 0.00 61 1007.2
20260505195013 54 254 0.9 9.6 0.00 0.00 0.00 59 1007.2
20260505194538 54 240 2.6 12.2 0.00 0.00 0.00 58 1007.3
20260505194014 54 193 6.1 12.2 0.00 0.00 0.00 59 1007.4
20260505193515 54 224 3.5 11.3 0.00 0.00 0.00 60 1007.3
20260505193031 54 215 4.3 11.3 0.00 0.00 0.00 61 1007.4
20260505192514 54 220 1.7 7.8 0.00 0.00 0.00 62 1007.4
20260505192015 54 237 3.5 7.0 0.00 0.00 0.00 61 1007.5
20260505191531 55 246 0.0 7.0 0.00 0.00 0.00 61 1007.4
20260505191014 54 262 2.6 11.3 0.00 0.00 0.00 60 1007.4
20260505190515 54 267 2.6 11.3 0.00 0.00 0.00 61 1007.4
20260505190028 54 325 2.6 7.8 0.00 0.00 0.00 59 1007.4
20260505185515 55 217 1.7 7.8 0.00 0.00 0.00 60 1007.4
20260505185015 55 203 2.6 7.8 0.00 0.00 0.00 59 1007.4
20260505184531 55 323 1.7 7.8 0.00 0.00 0.00 59 1007.4
20260505184012 55 230 1.7 6.1 0.00 0.00 0.00 60 1007.3
20260505183517 55 260 0.9 10.4 0.00 0.00 0.00 60 1007.2
20260505183033 54 223 5.2 12.2 0.00 0.00 0.00 60 1007.1
20260505182519 54 269 4.3 12.2 0.00 0.00 0.00 60 1007.0
20260505182015 54 268 4.3 12.2 0.00 0.00 0.00 60 1007.0
20260505181532 54 221 3.5 15.6 0.00 0.00 0.00 63 1006.8
20260505181016 54 274 6.1 15.6 0.00 0.00 0.00 62 1006.8
20260505180515 54 232 2.6 7.8 0.00 0.00 0.00 64 1006.8
20260505180054 54 261 2.6 7.8 0.00 0.00 0.00 65 1006.8
20260505175517 53 236 2.6 7.8 0.00 0.00 0.00 68 1006.7
20260505175018 53 216 4.3 7.8 0.00 0.00 0.00 68 1006.7
20260505174550 53 221 2.6 10.4 0.00 0.00 0.00 69 1006.6
20260505174013 53 271 4.3 10.4 0.00 0.00 0.00 68 1006.6
20260505173513 53 233 4.3 10.4 0.00 0.00 0.00 68 1006.8
20260505173034 53 248 3.5 8.7 0.00 0.00 0.00 71 1006.8
20260505172514 53 229 3.5 10.4 0.00 0.00 0.00 70 1006.5
20260505172015 53 269 3.5 10.4 0.00 0.00 0.00 71 1006.6
20260505171532 53 219 4.3 10.4 0.00 0.00 0.00 71 1006.6
20260505171014 52 233 3.5 10.4 0.00 0.00 0.00 72 1006.5
20260505170513 52 229 3.5 11.3 0.00 0.00 0.00 72 1006.5
20260505170031 52 251 4.3 11.3 0.00 0.00 0.00 74 1006.6
20260505165518 52 245 2.6 6.1 0.00 0.00 0.00 75 1006.8
20260505165013 51 215 2.6 12.2 0.00 0.00 0.00 74 1006.8
20260505164530 51 198 4.3 12.2 0.00 0.00 0.00 76 1006.8
20260505164014 51 233 3.5 7.0 0.00 0.00 0.00 77 1006.8
20260505163512 51 223 0.9 3.5 0.00 0.00 0.00 79 1006.7
20260505163031 50 215 0.0 3.5 0.00 0.00 0.00 79 1006.6
20260505162515 50 216 0.9 3.5 0.00 0.00 0.00 78 1006.7
20260505162016 50 210 0.9 2.6 0.00 0.00 0.00 78 1006.8
20260505161529 50 163 0.0 1.7 0.00 0.00 0.00 78 1006.9
20260505161015 50 0 0.0 1.7 0.00 0.00 0.00 78 1006.8
20260505160514 50 250 0.0 1.7 0.00 0.00 0.00 78 1006.8
20260505153033 50 346 1.7 6.1 0.00 0.00 0.00 72 1007.0
20260505152516 51 294 1.7 5.2 0.00 0.00 0.00 72 1007.0
20260505152015 51 340 1.7 4.3 0.00 0.00 0.00 70 1006.8
20260505151534 51 300 1.7 3.5 0.00 0.00 0.00 71 1006.5
20260505151013 51 306 0.9 3.5 0.00 0.00 0.00 71 1006.4
20260505150517 51 300 0.9 2.6 0.00 0.00 0.00 71 1006.6
20260505140516 52 326 0.9 6.1 0.00 0.00 0.00 72 1005.9